Miscellaneous Local Product
Issued by NWS Hastings, NE

Home | Current Version | Previous Version | Text Only | Print | Product List | Glossary Off
Versions: 1 2 3 4 5 6 7 8 9 10 11 12 13 14 15 16 17 18 19 20 21 22 23 24 25 26 27 28 29 30 31 32 33 34 35 36 37 38 39 40 41 42 43 44 45 46 47 48 49 50

000
AXUS43 KGID 191202
MISGRI

GID CWA HOURLY WEATHER ROUNDUP
NATIONAL WEATHER SERVICE HASTINGS NE
700 AM CDT TUE AUG 19 2014

NOTE: "FAIR" INDICATES FEW OR NO CLOUDS BELOW 12,000 FEET WITH NO
SIGNIFICANT WEATHER AND/OR OBSTRUCTIONS TO VISIBILITY.

...SOUTH CENTRAL NEBRASKA...

CITY           SKY/WX    TMP DP  RH WIND       PRES   REMARKS
GRAND ISLAND   CLEAR     66  62  87 W6        29.87R
HASTINGS       CLEAR     67  63  87 CALM      29.85S
KEARNEY        CLEAR     64  63  94 W6        29.89R
ORD            CLEAR     60  59  96 SW5       29.86S
AURORA         CLEAR     65  65 100 CALM      29.86R FOG
LEXINGTON      FOG       61  60  97 W5        29.90S VSB 1/4
HOLDREGE       CLEAR     62  60  94 CALM      29.89S
HEBRON         CLEAR     68  65  89 CALM      29.85R

...NEBRASKA PANHANDLE...

CITY           SKY/WX    TMP DP  RH WIND       PRES   REMARKS
CHADRON        CLEAR     65  54  67 S7        29.88F
ALLIANCE       CLEAR     52  51  97 SE7       29.94F
SCOTTSBLUFF    PTCLDY    58  55  90 E8        29.92F
SIDNEY         CLEAR     55  50  83 E3        29.97F

...WESTERN AND NORTH CENTRAL NEBRASKA...

CITY           SKY/WX    TMP DP  RH WIND       PRES   REMARKS
VALENTINE      PTCLDY    57  55  93 CALM      29.89F
AINSWORTH      CLEAR     59  57  92 CALM      29.90S
ONEILL         CLEAR     60  58  93 NW7       29.87S
BROKEN BOW     CLEAR     58  57  97 CALM      29.89R
IMPERIAL       PTCLDY    59  55  87 N5        29.92F
NORTH PLATTE   PTCLDY    59  58  96 CALM      29.91R
MCCOOK         CLEAR     59  55  87 CALM      29.90S

...EASTERN NEBRASKA...

CITY           SKY/WX    TMP DP  RH WIND       PRES   REMARKS
NORFOLK        CLEAR     62  59  90 NW3       29.84R
SO SIOUX CITY  CLEAR     62  60  93 NW6       29.80R
TEKAMAH        PTCLDY    65  61  87 CALM      29.80R
COLUMBUS       CLEAR     64  61  88 CALM      29.84R
ALBION         CLEAR     62  58  86 S5        29.86R
OMAHA EPPLEY   MOCLDY    70  66  87 CALM      29.81R
OFFUTT AFB     MOCLDY    65  65 100 NW1       29.81R
MILLARD        MOCLDY    69  65  90 CALM      29.82R
LINCOLN        CLEAR     66  64  93 N3        29.84R
NEBRASKA CITY  MOCLDY    68  68 100 W3        29.81S
BEATRICE       MOCLDY    69  68  98 CALM      29.83S
FALLS CITY     CLOUDY    68  64  87 NW5       29.79R

...NORTHERN KANSAS...

CITY           SKY/WX    TMP DP  RH WIND       PRES   REMARKS
GOODLAND       PTCLDY    62  55  77 S8        29.92S
HILL CITY      CLEAR     62  59  90 CALM      29.87F
NORTON         SUNNY     59  54  82 CALM      29.88R
PHILLIPSBURG   CLEAR     63  61  94 NW5       29.87S
BELOIT         CLEAR     64  63  94 CALM      29.86R
HAYS           CLEAR     64  54  68 CALM      29.86S
RUSSELL        CLEAR     65  57  75 NE5       29.85S
CONCORDIA      CLEAR     65  64  97 SW3       29.86R
SALINA         PTCLDY    68  61  78 N7        29.83S
TOPEKA         CLOUDY    74  66  76 W3        29.84R



USA.gov is the U.S. government's official web portal to all federal, state and local government web resources and services.